Flag for France Weather past 2 weeks in Reims, France

Now
54 °F

Fog.


Feels Like: 50 °F
Forecast: 55 / 74 °F
Wind: 12 mph from Northeast

Location: Chalons-Vatry

Current Time: Sep 3, 2014 at 8:37:41 AM

Latest Report: Sep 3, 2014 at 8:00 AM


Visibility: 3 mi

Pressure: 30.12 "Hg

Humidity: 94%

Dew point: 52 °F

Location of ReimsLocation

Historic Weather in Reims — Graph

°F

Reims temperature yesterday

Maximum temperature yesterday: 70 °F (at 1:00 PM)
Minimum temperature yesterday: 55 °F (at 2:30 AM)
Average temperature yesterday: 62 °F

Past Weeks' High & Low Weather Summary

 TemperatureHumidityPressure
High77 °F (Aug 28, 4:30 PM)100% (Aug 21, 7:00 AM)30.21 "Hg (Aug 21, 7:00 AM)
Low41 °F (Aug 21, 7:00 AM)43% (Aug 22, 4:30 PM)29.68 "Hg (Aug 26, 12:30 AM)
Average60 °F78%30.03 "Hg
* Reported Aug 19 7:00 AM — Sep 3 7:30 AM, Reims, Weather by CustomWeather, © 2014

Note: Actual official high and low records may vary slightly from our data, if they occured in-between our weather recording intervals... More about our weather records

Advertising

Reims weather history for previous 24 hours

 ConditionsComfort  
Time TempWeatherWind HumidityBarometerVisibility
7:30 AM
Sep 3
52 °FFog.9 mph94%30.12 "Hg2 mi
7:00 AM50 °FFog.7 mph100%30.12 "Hg2 mi
6:30 AM50 °FFog.8 mph100%30.12 "Hg2 mi
6:00 AM52 °FFog.8 mph94%30.12 "Hg3 mi
5:30 AM52 °FClear.7 mph94%30.12 "Hg4 mi
5:00 AM52 °FClear.7 mph94%30.12 "Hg4 mi
4:00 AM54 °FClear.8 mph88%30.15 "HgN/A
3:30 AM54 °FClear.8 mph88%30.12 "HgN/A
3:00 AM54 °FClear.8 mph94%30.15 "HgN/A
2:30 AM54 °FClear.8 mph94%30.15 "HgN/A
2:00 AM54 °FClear.7 mph94%30.15 "HgN/A
1:30 AM54 °FClear.6 mph88%30.15 "HgN/A
1:00 AM54 °FClear.6 mph94%30.15 "HgN/A
12:30 AM55 °FClear.7 mph88%30.15 "HgN/A
12:00 AM55 °FClear.6 mph88%30.15 "HgN/A
11:30 PM
Sep 2
55 °FClear.6 mph88%30.15 "HgN/A
11:00 PM57 °FClear.5 mph82%30.15 "HgN/A
10:30 PM59 °FClear.6 mph77%30.15 "HgN/A
10:00 PM61 °FClear.6 mph77%30.15 "HgN/A
9:30 PM61 °FClear.5 mph77%30.15 "HgN/A
9:00 PM63 °FClear.6 mph73%30.15 "HgN/A
8:30 PM64 °FClear.5 mph68%30.15 "HgN/A
8:00 PM66 °FClear.6 mph64%30.15 "HgN/A
7:30 PM68 °FClear.8 mph56%30.15 "HgN/A
7:00 PM70 °FClear.8 mph60%30.15 "HgN/A
6:30 PM70 °FClear.8 mph57%30.15 "HgN/A
6:00 PM70 °FClear.9 mph57%30.15 "HgN/A
5:30 PM70 °FClear.10 mph60%30.15 "HgN/A
5:00 PM70 °FClear.9 mph60%30.15 "HgN/A
4:30 PM70 °FOvercast.8 mph60%30.15 "HgN/A
4:00 PM70 °FCloudy.10 mph60%30.15 "HgN/A
3:30 PM70 °FBroken clouds.7 mph60%30.15 "HgN/A
3:00 PM70 °FBroken clouds.7 mph57%30.15 "HgN/A
2:30 PM70 °FPartly sunny.6 mph60%30.15 "HgN/A
2:00 PM70 °FBroken clouds.7 mph60%30.15 "HgN/A
1:30 PM70 °FPartly sunny.6 mph60%30.15 "HgN/A
1:00 PM70 °FClear.5 mph57%30.18 "HgN/A
12:30 PM68 °FClear.7 mph60%30.18 "HgN/A
12:00 PM66 °FClear.6 mph60%30.18 "HgN/A
11:30 AM66 °FClear.6 mph64%30.18 "HgN/A
11:00 AM66 °FScattered clouds.3 mph68%30.18 "HgN/A
10:30 AM64 °FClear.3 mph73%30.18 "HgN/A
10:00 AM59 °FClear.No wind82%30.18 "HgN/A
9:30 AM57 °FClear.No wind88%30.15 "HgN/A
9:00 AM57 °FClear.5 mph88%30.18 "HgN/A
8:30 AM57 °FClear.5 mph88%30.15 "HgN/A
8:00 AM57 °FClear.3 mph88%30.15 "HgN/A
Weather by CustomWeather, © 2014

See weather overviewHow to use our weather pages